星链-4794 (STARLINK-4794 )

导读

STARLINK-4794是美国SpaceX公司星链星座的成员卫星,于北京时间2022年9月19日发射升空,归属星链星座组网。作为低轨通信卫星,它属于星链第二代组网中的一员,服务于星链全球高速卫星互联网项目,为偏远地区、海洋等场景提供低延迟宽带接入,进一步扩充了星链星座的全球覆盖能力与通信容量。

基本信息
目录编号:
53853
目录名称:
STARLINK-4794
国际标识:
2022-114AM
轨道中心:
EARTH
卫星名称:
星链-4794
卫星全名:
星链-4794 (STARLINK-4794 )
卫星状态:
在轨 (已飞行1454 天)
发射日期:
2022-09-19 UTC
国别 :
美国 (US)
星等 :
--
该卫星已列入 空间交会检测服务 Space Conjunction Data Service (SCDS) ,当前飞行风险评估等级: 无高风险
轨道信息
数据来源 国际轨道数据 AOE轨道数据
星历时间 2026-09-12T11:22:13+0800
7小时前
查看轨道信息
2026-09-06T00:00:00+0800
6天前
查看轨道信息
半长轴 6917.904km 6917.901km
偏心率 0.0001641 0.0000808
轨道倾角 53.160° 53.163°
近地点辐角 85.271° 77.824°
升交点赤经 176.195° 205.296°
平近点角 274.846° 18.833°
近地点 538.631km 539.205km
远地点 540.903km 540.323km
周期 95.438分钟 95.438分钟
每日圈数 15.088325 15.088334
详细信息
固有亮度:
5
最大亮度:
2.5
卫星平台:
Starlink v1.5
覆盖范围:
全球
运营商:
太空探索技术公司
运营商所在国:
美国
制造商(研发单位):
太空探索技术公司
制造商所在国:
美国
使用方式:
暂无
卫星简介
星链(Starlink)计划是由太空探索技术公司(SpaceX)提出的一个巨型低轨卫星互联网星座项目,计划在2019年至2024年间在太空搭建由约1.2万颗卫星组成的“星链”网络,其中1584颗将部署在地球上空550千米处的近地轨道,并从2020年开始工作。该卫星仍在工作。
2D轨道图
3D轨道图
轨道高度分析图
轨道倾角分析图
轨道综合分析图
查看轨道综合分析图
交会数据列表
事件ID 空间交会对象 最接近时刻(TCA) 交会距离 交会风险概率(CRP) 交会风险指数(CRI) 操作
CDM_260912-072603-502305-385324
2026-09-12T
07:26:59+0000
1.017 km
极远距离
2.389712E-5 中风险 0.63
CDM_260910-200705-385306-700125
OBJECT J (67001)
2026-09-10T
20:07:48+0000
2.939 km
极远距离
1.340785E-6 低风险 0.38
CDM_260914-085905-385305-634921
2026-09-14T
08:59:11+0000
2.849 km
极远距离
1.192346E-6 低风险 0.37
与全量物体交会距离演化趋势
与全量物体交会风险概率演化趋势